Location: Sunny Point
(33.0946°N, 85.0574°W)
Time: 18:07:37
(UTC+00:00)

ISS - Visible Passes

Search period start: 27 November 2022 00:00
Search period end: 07 December 2022 00:00
Orbit: 411 x 421 km, 51.6° (Epoch: 27 November)

Date Brightness Start Highest point End Pass type
(mag) Time Alt. Az. Time Alt. Az. Time Alt. Az.
04 Dec -2.4 23:51:31 10° NNW 23:53:39 24° NNE 23:53:39 24° NNE visible
05 Dec -2.0 23:03:13 10° N 23:05:25 16° NNE 23:07:36 10° ENE visible
06 Dec -1.5 00:39:06 10° WNW 00:40:39 24° WNW 00:40:39 24° WNW visible
06 Dec -3.9 23:50:09 10° NW 23:53:29 85° NE 23:55:07 27° SE visible
